Nadi, Fiji

9:32 AM FJT on August 29, 2016 (GMT +1200)
Nadi International

Weather History for NFFN - December, 2013

Change the Weather History Date:

Monday, December 30, 2013

  Actual Average Record
Temperature  
Mean Temperature 80 °F -  
Max Temperature 88 °F 86 °F 95 °F (1997)
Min Temperature 73 °F 73 °F 71 °F (1999)
Cooling Degree Days 16    
Growing Degree Days 30 (Base 50)    
Moisture  
Dew Point 75 °F    
Average Humidity 83    
Maximum Humidity 100    
Minimum Humidity 65    
Precipitation  
Precipitation 0.00 in 0.39 in - ()
Sea Level Pressure  
Sea Level Pressure 29.68 in    
Wind  
Wind Speed 5 mph ()    
Max Wind Speed 13 mph    
Max Gust Speed -    
Visibility 6.8 miles    
Events      
Averages and records for this station are not official NWS values.
T = Trace of Precipitation, MM = Missing Value Source: Averaged Metar Reports

Daily Weather History Graph

Daily Weather History Graph

Search for Another Location

Airport or City:

Trip Planner

Search our weather history database for the weather conditions in past years. The results will help you decide how hot, cold, wet, or windy it might be!

Date:

Astronomy

Dec. 30, 2013 Rise Set
Actual Time 6:37 AM FJST 7:48 PM FJST
Civil Twilight 6:13 AM FJST 8:12 PM FJST
Nautical Twilight 5:44 AM FJST 8:40 PM FJST
Astronomical Twilight 5:15 AM FJST 9:10 PM FJST
Moon 4:01 AM FJST (12/30) 5:20 PM FJST (12/30)
Length of Visible Light 13h 59m
Length of Day
13h 10m
Waning Crescent, 9% of the Moon is Illuminated
Dec 30
Waning Crescent
Jan 2
New
Jan 8
First Quarter
Jan 16
Full
Jan 24
Last Quarter

Hourly Weather History & Observations

Time (FJST) Temp. Heat Index Dew Point Humidity Pressure Visibility Wind Dir Wind Speed Gust Speed Precip Events Conditions
12:00 AM 77.0 °F - 77.0 °F 100% 29.74 in 6.2 mi ESE 3.5 mph - N/A   Scattered Clouds
1:00 AM 76 °F - 76 °F 100% 29.73 in 12 mi 3.5 mph - -   Partly Cloudy
1:00 AM 77.0 °F - 75.2 °F 94% 29.71 in 6.2 mi Variable 3.5 mph - N/A   Partly Cloudy
2:00 AM 77.0 °F - 75.2 °F 94% 29.71 in 6.2 mi Variable 3.5 mph - N/A   Partly Cloudy
3:00 AM 75.2 °F - 75.2 °F 100% 29.68 in 6.2 mi Variable 3.5 mph - N/A   Partly Cloudy
4:00 AM 75 °F - 75 °F 99% 29.68 in 12 mi 3.5 mph - -   Partly Cloudy
4:00 AM 75.2 °F - 75.2 °F 100% 29.65 in 6.2 mi Variable 3.5 mph - N/A   Partly Cloudy
5:00 AM 73.4 °F - 73.4 °F 100% 29.65 in 6.2 mi SE 4.6 mph - N/A   Partly Cloudy
6:00 AM 73.4 °F - 73.4 °F 100% 29.68 in 6.2 mi SE 3.5 mph - N/A   Partly Cloudy
7:00 AM 74 °F - 73 °F 94% 29.70 in 31 mi East 4.6 mph - -   Partly Cloudy
7:00 AM 73.4 °F - 71.6 °F 94% 29.68 in 6.2 mi East 4.6 mph - N/A   Partly Cloudy
8:00 AM 77.0 °F - 73.4 °F 89% 29.71 in 6.2 mi ESE 3.5 mph - N/A   Partly Cloudy
9:00 AM 84.2 °F 92.3 °F 75.2 °F 74% 29.71 in 6.2 mi East 3.5 mph - N/A   Partly Cloudy
10:00 AM 85 °F - 75 °F 65% 29.72 in 31 mi Calm Calm - -   Partly Cloudy
10:00 AM 84.2 °F 92.3 °F 75.2 °F 74% 29.71 in 6.2 mi Calm Calm - N/A   Partly Cloudy
11:00 AM 86.0 °F 95.1 °F 75.2 °F 70% 29.71 in 6.2 mi West 5.8 mph - N/A   Partly Cloudy
12:00 PM 86.0 °F 95.1 °F 75.2 °F 70% 29.68 in 6.2 mi West 8.1 mph - N/A   Partly Cloudy
1:00 PM 86 °F - 76 °F 65% 29.69 in 31 mi West 10.4 mph - -   Partly Cloudy
1:00 PM 86.0 °F 95.1 °F 75.2 °F 70% 29.68 in 6.2 mi West 10.4 mph - N/A   Partly Cloudy
2:00 PM 87.8 °F 99.7 °F 77.0 °F 70% 29.65 in 6.2 mi West 12.7 mph - N/A   Scattered Clouds
3:00 PM 86.0 °F 96.9 °F 77.0 °F 74% 29.65 in 6.2 mi West 12.7 mph - N/A   Scattered Clouds
4:00 PM 88 °F - 78 °F 66% 29.64 in 31 mi West 12.7 mph - -   Partly Cloudy
4:00 PM 87.8 °F 102.5 °F 78.8 °F 75% 29.62 in 6.2 mi West 12.7 mph - N/A   Scattered Clouds
5:00 PM 86.0 °F 95.1 °F 75.2 °F 70% 29.62 in 6.2 mi West 11.5 mph - N/A   Scattered Clouds
6:00 PM 86.0 °F 95.1 °F 75.2 °F 70% 29.62 in 6.2 mi West 9.2 mph - N/A   Scattered Clouds
7:00 PM 82 °F - 76 °F 76% 29.66 in 31 mi SE 8.1 mph - -   Partly Cloudy
7:00 PM 82.4 °F 89.5 °F 75.2 °F 79% 29.65 in 6.2 mi SE 8.1 mph - N/A   Scattered Clouds
8:00 PM 80.6 °F 87.1 °F 77.0 °F 89% 29.65 in 6.2 mi SSE 4.6 mph - N/A   Partly Cloudy
9:00 PM 80.6 °F 86.2 °F 75.2 °F 84% 29.68 in 6.2 mi ENE 4.6 mph - N/A   Partly Cloudy
10:00 PM 80 °F - 74 °F 79% 29.71 in 12 mi East 6.9 mph - -   Partly Cloudy
10:00 PM 80.6 °F 86.2 °F 75.2 °F 84% 29.68 in 6.2 mi East 6.9 mph - N/A   Partly Cloudy
11:00 PM 78.8 °F - 75.2 °F 89% 29.71 in 6.2 mi ESE 5.8 mph - N/A   Partly Cloudy